Theta_e
303 303 303 303 303 304 304 304 303 302 302 298 294 297 288 286 284 296 299 301 297 290 283 285 283 282 284 288 287 288 286 286 288 286 289 286 290 288 287 287 287 289 288 289 288 289 288 287 285 287 287 289 289 289 290 292 290 292 289 290 290 297 287 284 285 288 290 291 293 294 295 294 290 292 293 291 290 291 290 289 292 287 290 288 289 285 291
303 303 303 303 303 304 303 304 303 303 302 298 297 291 287 287 286 290 299 301 297 287 278 278 281 283 285 285 284 288 286 285 284 285 287 285 286 286 286 288 291 288 292 290 286 290 284 287 288 287 288 287 291 289 290 292 290 291 290 288 298 285 287 286 283 282 284 287 290 290 292 293 291 290 293 292 293 293 293 293 295 287 290 289 287 282 292
303 303 303 303 303 303 303 303 303 303 303 302 297 288 289 287 290 290 294 299 294 283 286 283 281 283 283 283 283 284 286 288 287 287 286 290 288 287 286 288 289 288 291 290 289 290 289 287 291 291 291 290 293 289 290 292 292 293 294 296 296 288 288 285 280 277 275 275 277 280 283 287 291 292 292 292 292 293 292 286 289 284 292 292 287 287 297
303 303 303 303 303 303 303 303 303 303 303 303 298 292 288 285 280 286 288 292 290 289 291 287 285 284 283 281 283 285 284 288 290 290 288 290 290 289 288 289 290 288 287 287 283 287 292 289 289 290 290 293 294 291 290 291 292 296 300 299 295 289 290 289 288 285 282 284 288 288 289 289 286 288 291 290 292 294 295 295 288 285 290 289 292 295 296
303 303 303 303 303 303 303 303 303 303 303 303 298 294 289 288 283 284 281 287 287 285 288 286 286 283 287 282 285 283 285 287 288 292 285 291 289 289 289 288 286 287 286 286 287 289 289 291 289 290 292 294 295 295 290 291 294 300 299 298 294 293 288 288 290 290 290 290 291 290 291 288 289 289 289 291 291 294 294 289 288 295 291 285 295 299 298
303 303 303 303 303 303 303 303 303 303 303 303 300 288 290 283 286 287 290 284 282 282 283 286 285 286 286 284 287 284 284 285 283 288 290 290 291 286 289 288 289 288 288 288 285 286 288 289 287 293 293 295 295 295 294 290 294 299 297 297 295 290 285 289 287 288 288 289 290 293 293 291 291 290 291 290 291 292 291 292 295 294 288 286 295 299 299
303 303 303 303 303 303 303 303 303 303 302 302 298 287 291 290 287 286 292 284 288 287 287 287 286 284 286 284 285 284 284 283 286 285 285 287 287 289 283 287 288 289 289 289 286 287 286 286 290 292 293 293 294 293 294 296 298 298 297 294 297 293 287 292 289 288 290 291 294 294 295 293 292 291 291 292 291 292 293 293 295 296 294 298 299 301 301
303 303 303 303 303 303 303 303 303 303 302 301 296 292 287 284 284 284 289 287 286 287 288 288 287 284 288 283 285 285 285 284 287 288 286 283 286 290 286 288 292 292 288 288 286 289 290 290 288 293 293 293 294 294 294 294 297 298 294 293 295 292 286 292 290 288 289 292 292 293 294 293 293 290 289 290 291 291 292 294 296 296 296 297 300 300 300
303 303 303 302 302 303 303 303 303 302 302 296 293 292 294 291 293 291 285 284 287 287 287 286 286 284 286 284 286 286 287 286 289 289 291 288 286 289 288 291 291 292 290 288 289 291 291 293 294 295 294 290 295 294 294 297 295 295 293 294 294 294 287 293 291 285 287 291 291 292 294 294 293 292 291 291 289 289 291 290 297 293 293 297 298 297 298
303 303 302 302 302 303 302 302 303 302 302 297 294 289 296 295 297 295 290 283 289 287 289 287 286 282 286 287 287 287 288 290 291 286 291 292 292 292 291 292 292 291 291 291 292 295 295 295 297 297 298 298 297 297 297 298 298 295 293 296 292 293 292 288 288 285 285 291 291 292 293 292 289 289 293 293 295 296 297 297 297 297 300 296 291 294 303
303 303 302 302 302 303 303 303 303 302 301 295 292 292 294 290 288 289 290 283 286 288 288 287 285 288 290 290 289 291 290 291 291 286 286 292 293 295 295 293 291 290 290 294 298 300 301 301 301 302 300 298 299 299 300 299 299 298 296 293 293 295 294 290 292 284 286 290 290 288 289 282 284 295 295 295 294 293 292 293 296 298 301 298 302 302 306
302 302 302 302 302 303 303 303 302 303 302 300 299 294 297 297 293 290 285 282 283 289 287 285 287 288 288 289 289 288 288 289 289 292 288 291 293 295 294 293 292 288 297 300 302 304 304 303 303 303 299 298 298 299 299 297 298 298 297 296 293 294 293 290 291 288 286 289 287 285 280 283 294 296 298 298 297 295 295 295 294 298 298 297 300 304 304
302 302 302 302 302 302 302 303 303 302 302 301 299 293 297 299 293 288 286 283 281 285 283 286 289 289 289 289 288 289 290 291 291 291 291 291 291 293 294 293 292 295 302 300 300 299 295 292 294 296 296 296 298 297 297 297 296 298 298 297 296 290 290 289 288 288 288 286 286 278 281 291 295 297 299 299 298 298 297 294 298 297 299 300 302 304 306
302 302 302 302 302 302 302 303 303 303 303 302 298 297 298 298 291 287 286 283 283 286 287 286 288 288 289 289 289 290 291 291 292 293 290 293 291 292 294 295 297 301 301 301 296 296 292 289 289 292 292 293 294 293 294 295 295 296 297 296 297 296 294 292 287 288 284 286 286 284 292 291 293 294 295 295 295 295 294 289 294 300 300 301 303 303 305
301 301 301 301 302 302 302 302 303 303 303 303 301 299 298 298 296 290 288 286 282 285 286 281 285 287 288 288 289 287 288 289 289 289 293 294 292 294 295 297 300 300 303 297 295 293 289 286 285 285 286 287 281 285 293 292 295 296 296 298 296 297 292 294 289 284 288 287 285 285 285 282 289 298 301 303 302 302 300 298 295 301 302 303 303 302 303
300 300 300 301 301 301 302 302 302 302 303 303 301 299 298 300 299 296 291 286 284 280 286 289 290 289 287 288 290 288 287 287 289 290 291 292 293 295 298 299 300 302 301 298 296 291 288 287 283 284 283 285 288 287 286 292 291 294 296 296 296 295 296 293 290 287 286 286 284 283 281 286 293 296 299 302 301 302 301 295 292 302 302 303 305 302 302
299 299 299 300 301 301 301 301 301 302 302 303 299 299 297 302 297 293 289 287 285 282 291 292 291 290 289 288 290 288 289 286 289 286 287 290 294 296 299 300 302 301 299 296 294 290 287 284 279 286 289 289 286 285 289 290 287 289 294 297 295 294 292 291 289 286 287 286 284 283 285 287 294 296 298 301 301 300 297 286 288 301 303 304 305 302 302
299 299 299 300 300 300 301 301 301 302 302 303 301 298 297 302 300 297 290 287 284 284 291 293 291 289 288 290 289 293 295 293 292 294 291 294 295 296 298 300 297 301 303 292 291 288 285 284 285 285 285 290 291 290 284 289 286 287 290 289 291 290 289 290 288 288 286 285 286 287 288 293 295 298 299 300 302 299 288 285 292 302 304 305 305 304 304
298 299 299 299 299 300 300 300 301 301 301 302 302 300 299 301 301 299 292 287 285 283 291 296 295 291 294 296 293 295 295 295 293 288 288 289 294 300 300 301 301 292 299 289 291 288 286 287 288 287 288 288 291 286 290 287 287 288 289 288 288 287 288 286 288 288 287 288 286 287 289 296 298 298 300 302 298 289 289 297 297 302 305 306 306 305 305
298 298 299 299 299 300 300 300 301 301 301 302 302 296 299 302 302 300 293 286 286 285 289 290 292 290 295 293 292 291 293 294 294 291 290 288 297 299 297 291 298 298 292 293 287 290 288 287 290 289 287 288 292 294 290 289 291 290 290 293 290 289 287 286 287 286 286 286 286 284 282 290 301 299 298 299 292 294 299 299 300 304 306 305 306 306 306
298 298 298 299 299 300 300 300 300 301 301 302 302 298 296 301 301 301 300 294 287 284 288 297 296 294 296 295 297 297 295 292 294 292 295 295 299 295 287 288 293 293 289 291 287 288 289 288 290 289 292 291 292 291 288 288 291 294 293 293 294 291 288 286 287 291 287 285 283 286 292 297 301 302 295 299 300 300 300 302 301 304 306 306 305 306 306
298 298 298 299 299 300 300 300 301 301 301 302 302 300 295 299 300 301 301 298 290 286 290 296 297 294 296 298 298 299 298 298 299 301 297 293 297 297 295 294 296 297 296 295 290 287 292 292 291 289 289 290 291 289 291 288 287 293 294 293 288 295 293 293 289 293 290 289 291 294 293 296 297 296 297 297 300 300 301 304 305 304 305 307 306 306 307
297 298 298 298 299 299 300 300 300 300 301 302 301 298 295 298 299 302 300 293 295 295 296 295 296 296 298 298 299 299 299 301 301 302 301 296 291 296 296 296 295 299 300 298 295 296 296 294 290 292 289 293 292 289 290 292 289 292 290 293 294 296 296 295 295 292 292 293 294 294 294 295 296 296 297 297 299 300 302 305 304 306 306 307 306 306 305
297 298 298 298 299 299 299 300 300 300 301 301 301 298 297 299 299 300 297 295 290 286 291 295 292 289 297 298 300 301 300 299 300 301 305 303 289 290 296 299 301 299 298 300 302 300 295 294 295 295 290 294 293 291 289 287 289 293 293 292 295 295 296 296 295 295 292 290 293 293 294 294 294 296 298 299 299 299 303 305 306 306 306 307 307 304 301
297 298 298 298 299 299 299 300 300 300 301 301 301 301 301 299 301 299 293 287 287 287 285 288 289 296 300 302 303 302 301 302 303 301 302 302 298 296 296 298 302 299 298 301 300 298 293 293 293 292 290 294 294 290 292 292 290 293 291 292 294 294 298 295 292 293 292 291 292 293 293 293 294 296 298 298 300 301 303 305 305 305 307 307 305 303 301
297 297 298 298 298 299 299 300 300 300 300 301 301 298 297 297 300 301 298 295 293 290 285 287 294 301 301 299 299 302 304 303 302 301 302 302 302 301 301 302 302 304 301 299 298 295 290 289 290 291 292 289 296 292 291 293 294 294 294 294 295 295 297 292 294 293 293 293 294 293 294 295 296 296 296 297 298 301 301 302 302 302 302 302 302 303 302
297 297 298 298 298 299 299 299 300 300 301 301 300 299 299 299 301 299 296 295 290 287 287 286 291 296 299 296 300 303 303 303 303 302 301 302 302 302 301 300 299 300 300 301 296 290 290 291 292 292 293 292 296 294 294 294 296 291 292 294 296 295 295 295 293 291 291 293 296 295 294 293 297 296 297 298 299 301 301 301 301 302 301 301 301 301 302
297 297 298 298 299 299 300 300 300 300 300 301 301 300 301 299 300 301 301 299 295 289 288 288 289 294 299 296 300 301 302 303 303 302 301 302 302 301 301 300 300 297 296 295 293 292 292 293 292 290 290 295 294 291 293 293 294 294 293 294 294 294 295 295 293 292 292 296 296 298 297 296 297 298 297 298 300 301 301 301 302 302 302 302 301 299 299
297 297 298 298 299 299 300 300 300 300 301 301 300 299 298 299 301 301 302 301 298 294 292 291 294 292 290 296 299 301 302 304 302 302 301 301 300 300 299 299 298 295 293 291 289 289 290 291 290 293 293 296 295 291 292 289 287 288 292 294 295 296 296 296 296 297 296 295 296 297 297 297 295 295 297 298 300 302 301 302 303 303 303 303 302 301 299
297 298 298 299 299 299 300 300 300 300 301 299 298 292 290 295 299 300 301 301 299 297 290 287 286 290 298 297 300 300 299 300 300 301 300 298 298 298 298 298 296 296 296 292 291 289 288 290 290 294 296 297 294 290 288 287 289 291 293 294 295 295 295 297 297 297 296 295 295 295 295 295 296 296 297 298 299 301 300 300 302 302 303 304 302 301 301
298 298 299 299 299 300 300 300 301 301 300 297 296 288 287 288 296 301 301 301 300 297 290 289 288 292 292 299 298 299 298 298 299 299 299 297 297 297 297 299 296 296 291 290 290 289 288 291 290 293 296 294 292 291 289 290 289 291 293 294 293 294 295 295 296 297 296 295 296 296 296 296 297 297 297 298 299 300 300 300 301 301 302 303 302 301 300
298 298 299 299 299 300 300 300 300 301 300 297 294 293 294 295 299 301 302 301 300 296 290 288 288 289 287 290 297 298 298 297 296 299 299 299 301 298 298 298 298 297 294 291 289 290 290 287 289 292 294 292 291 287 289 290 289 290 294 294 294 294 295 295 295 296 297 298 298 296 295 295 297 297 296 297 299 300 301 300 301 302 300 302 302 301 301
298 298 299 299 299 300 300 301 301 300 299 300 302 302 302 302 303 303 303 301 298 293 293 290 287 287 285 293 297 299 297 302 300 297 298 297 298 297 299 296 296 297 298 295 290 290 291 288 287 289 291 292 289 288 288 287 289 292 293 293 293 294 294 295 295 296 296 296 296 297 295 295 295 296 297 298 299 300 300 300 300 301 300 299 299 299 299
298 299 299 299 300 300 301 301 301 300 300 298 297 298 301 302 303 303 303 301 296 293 292 289 286 287 289 295 293 297 297 295 294 294 292 297 292 298 293 296 296 292 293 293 289 290 291 290 290 288 291 288 287 291 288 289 292 293 293 293 294 294 295 295 295 295 294 295 296 297 298 297 297 298 298 298 298 300 301 300 300 298 298 298 298 298 298
299 299 299 299 300 300 300 301 300 298 296 295 296 298 299 301 302 303 302 299 291 287 289 290 291 288 287 288 285 294 297 297 294 292 290 294 296 296 295 294 292 292 291 295 289 286 287 290 291 290 288 289 288 285 287 291 292 292 293 293 294 295 296 295 294 294 295 296 296 296 297 297 297 296 297 297 297 298 298 299 299 298 297 297 297 297 297
298 299 299 299 299 299 299 300 298 296 295 296 297 300 301 303 303 304 304 300 298 287 283 284 285 287 286 285 286 290 296 296 291 293 290 289 297 292 292 292 290 290 291 290 289 289 288 292 290 288 287 287 285 289 292 293 293 293 294 294 295 295 295 295 294 294 295 296 296 297 297 297 297 296 297 297 297 298 298 298 298 298 297 296 296 297 296
298 299 299 298 298 299 295 295 297 297 296 297 298 301 302 303 303 303 300 299 298 299 294 286 287 288 288 288 287 289 293 288 291 291 291 289 287 287 290 290 288 288 289 289 288 288 290 292 289 287 287 286 288 292 291 292 294 294 294 295 295 295 295 295 296 296 295 295 295 295 296 296 296 297 296 296 296 297 297 296 297 296 296 295 296 295 296
298 298 294 294 297 291 291 293 296 297 298 298 299 298 298 297 291 291 290 288 292 297 290 291 287 290 289 288 288 296 294 289 289 289 289 287 288 289 287 289 287 289 286 283 288 292 288 285 283 286 287 291 291 291 292 293 295 296 297 296 295 296 296 296 296 296 294 293 293 294 294 295 295 295 295 295 296 296 296 297 297 298 297 297 296 296 296
296 293 291 290 291 290 290 294 297 298 296 297 297 293 290 287 288 287 288 288 291 292 291 291 290 290 291 289 290 295 292 289 288 289 287 289 288 286 288 286 286 288 284 284 287 291 287 284 282 284 288 291 294 294 293 294 295 297 297 297 297 296 296 297 298 298 297 297 296 296 296 294 294 294 296 295 296 297 297 297 297 297 297 297 296 296 296
292 288 285 285 287 290 295 296 297 295 295 292 289 289 289 288 286 286 286 285 286 285 287 288 292 291 291 291 288 290 294 293 288 287 287 290 291 287 285 287 285 286 280 281 285 290 287 284 281 283 287 291 294 294 294 295 297 297 298 297 297 297 297 297 296 296 297 297 298 297 298 298 297 297 296 296 296 295 296 296 297 297 297 296 296 296 296
290 289 287 284 289 292 293 295 296 293 290 290 289 286 284 285 287 285 285 283 283 286 288 291 291 292 291 288 289 288 296 296 292 289 290 286 288 291 287 283 285 284 279 282 285 285 283 281 280 282 286 291 295 295 294 295 296 296 297 297 297 297 297 297 297 297 298 297 297 297 297 298 298 297 297 297 297 296 297 297 296 297 297 296 295 296 297
292 291 292 294 294 294 293 293 289 290 288 287 285 283 284 284 286 286 285 284 285 285 292 290 289 289 291 293 293 292 291 292 291 286 286 285 286 286 283 282 283 282 279 284 285 282 284 282 279 282 287 288 292 293 296 296 295 296 296 297 297 297 297 297 297 297 299 298 297 297 297 298 298 297 297 296 296 295 296 295 295 295 295 296 296 296 296
297 296 294 291 289 288 288 287 287 287 284 283 280 282 283 282 283 283 284 284 286 287 290 293 292 293 294 292 292 292 290 292 290 287 286 285 285 284 283 281 280 279 282 286 285 282 281 279 279 286 290 291 291 294 296 297 297 297 298 298 298 298 298 297 297 297 298 298 298 297 297 297 297 297 297 296 295 295 295 295 295 295 295 295 295 294 294
294 293 290 286 287 287 287 283 288 287 283 281 281 280 280 281 282 281 281 286 289 290 291 288 289 289 288 292 289 288 288 290 288 285 285 282 284 281 279 279 282 284 286 283 282 282 282 280 286 290 290 290 291 293 295 295 296 296 296 296 297 297 297 297 297 297 296 297 298 298 297 297 296 297 297 297 296 294 294 294 295 295 294 295 294 294 294
287 286 284 285 283 285 285 280 286 284 281 283 282 280 279 280 281 281 285 287 287 289 290 289 289 288 287 291 288 288 285 287 288 286 283 284 282 281 280 281 283 281 281 280 278 279 280 283 289 287 289 291 293 294 295 296 296 297 296 296 296 297 297 297 297 297 297 297 297 297 296 296 296 295 296 296 296 296 295 294 294 294 294 294 293 293 294
286 284 283 281 278 283 283 281 280 282 284 284 284 285 285 287 286 288 290 288 289 290 289 289 289 287 287 289 287 287 284 285 286 283 282 283 282 280 283 282 283 280 277 276 276 279 282 286 289 290 291 293 294 294 294 295 296 297 297 296 296 297 297 297 297 297 297 297 297 297 296 296 296 295 295 295 295 295 295 295 296 295 295 294 293 293 293
287 286 283 282 278 282 284 282 283 284 285 287 287 286 287 287 288 288 289 288 289 290 290 290 289 289 288 289 288 286 284 283 284 283 283 282 280 282 282 282 277 275 276 274 274 278 283 287 289 289 290 293 294 294 294 295 296 297 298 297 296 296 297 297 297 296 297 297 297 296 296 296 296 296 295 295 295 295 294 295 295 295 295 294 293 293 293
284 285 283 278 277 281 283 284 286 286 286 287 287 286 286 286 288 289 291 290 290 289 289 290 290 288 287 288 289 286 284 283 284 284 283 283 282 279 275 274 273 274 276 279 282 286 288 289 289 288 291 294 295 294 294 295 296 297 297 296 296 296 296 296 296 296 296 297 296 296 296 296 296 295 295 295 294 294 294 294 294 295 295 294 294 294 293
287 284 283 280 281 281 282 285 286 287 287 288 287 287 288 289 288 289 291 290 289 290 290 289 288 287 287 285 284 285 285 285 282 281 283 281 278 273 273 274 272 276 280 282 286 289 290 289 288 289 292 294 295 295 295 296 296 297 296 296 296 297 297 297 297 297 297 297 297 296 296 296 296 295 294 294 294 294 295 295 295 294 294 293 293 293 293
285 283 284 283 284 284 285 285 285 286 287 287 288 288 287 287 288 290 290 290 291 289 290 289 288 287 286 284 283 281 283 282 282 281 280 276 274 273 274 273 274 277 284 287 286 289 288 288 291 292 293 294 294 295 295 295 294 296 297 297 297 297 297 297 297 297 297 297 297 297 297 296 296 295 294 294 295 295 295 295 295 294 295 295 295 295 294
285 285 285 286 285 284 286 283 283 284 286 287 287 288 287 288 288 289 291 289 290 289 287 285 283 283 285 282 280 279 282 283 283 280 279 279 278 277 277 276 281 284 287 290 288 288 287 291 293 294 294 294 295 295 296 296 295 296 296 296 297 297 297 298 297 297 297 297 297 292 295 296 297 296 296 295 294 294 294 294 294 295 295 295 295 295 295
281 281 283 284 285 286 287 287 287 287 287 288 288 289 288 288 290 291 291 290 290 287 285 284 284 283 280 282 282 283 284 283 280 279 280 280 279 280 277 282 288 290 290 290 291 290 288 291 293 294 295 294 294 295 295 295 295 295 295 296 296 296 296 297 297 297 297 296 296 296 296 296 295 295 294 293 293 293 292 292 292 293 294 293 294 294 295
Wind_Speed
19 20 20 20 20 19 18 18 18 15 11 5 5 2 3 3 3 2 2 2 1 2 2 1 1 2 3 6 4 4 5 3 3 4 3 3 1 1 2 2 2 1 1 2 2 1 1 3 5 3 5 4 4 5 11 11 13 12 6 6 6 4 3 7 3 4 3 3 3 2 7 11 5 9 5 8 11 14 10 3 5 4 3 3 1 2 1
20 21 20 19 19 19 19 19 18 17 15 6 4 2 2 2 3 2 3 2 1 2 2 1 1 3 4 4 6 4 4 3 4 2 2 1 3 2 3 3 2 3 1 1 1 3 1 1 1 4 2 1 2 10 8 13 11 14 5 7 7 4 1 6 6 6 6 6 4 5 3 8 10 11 8 11 4 4 2 5 3 6 12 9 5 7 2
20 20 20 20 21 20 19 19 18 18 17 10 2 2 2 2 1 1 1 1 1 1 3 4 1 2 4 4 6 4 2 4 5 3 2 1 1 1 2 3 5 4 5 3 1 2 1 1 1 4 1 2 3 6 10 13 11 10 8 8 8 3 3 6 9 12 13 13 15 15 13 14 6 6 11 10 12 10 8 7 5 10 4 11 9 4 3
19 19 19 20 21 20 20 19 18 18 17 14 0 2 1 3 2 1 2 2 2 3 4 4 3 3 3 2 4 3 2 1 3 5 5 4 2 3 4 6 5 3 2 2 2 2 2 2 2 3 2 1 2 1 9 10 11 10 13 12 9 2 1 4 2 6 9 7 5 4 6 5 9 11 16 13 12 11 6 3 4 12 5 8 8 3 7
19 18 19 20 20 21 20 19 18 18 18 15 2 1 1 2 2 1 1 1 4 6 3 4 4 2 4 3 3 3 2 3 3 1 2 2 2 2 5 2 2 1 2 1 1 2 1 2 3 3 1 1 2 3 4 6 12 13 11 13 5 3 3 7 6 5 3 4 4 4 7 12 9 6 11 10 9 8 9 8 8 7 7 11 3 7 9
18 18 19 19 20 21 21 20 18 19 19 16 0 2 2 2 2 1 2 3 2 2 4 6 7 7 4 4 3 4 5 3 2 1 0 2 3 3 0 4 6 5 1 0 0 1 1 1 1 1 0 1 2 3 2 7 5 12 8 13 5 5 5 2 3 4 4 1 3 4 2 2 5 9 10 12 12 12 15 14 5 11 9 7 7 9 8
17 18 18 19 21 21 20 19 19 18 20 13 1 3 1 1 2 2 4 3 2 4 5 3 4 5 4 3 3 4 4 5 2 1 2 1 2 6 2 2 1 6 5 1 1 1 1 2 1 1 3 3 1 5 6 2 1 9 6 8 0 5 5 4 7 4 4 2 1 1 4 3 2 3 7 12 13 14 14 11 7 11 6 1 10 12 12
17 18 19 19 21 21 20 20 19 18 18 9 3 4 3 3 3 2 2 4 6 6 3 3 4 3 4 3 3 3 3 5 2 1 3 1 3 5 4 5 6 2 4 4 2 2 1 1 2 2 3 1 2 2 1 5 3 5 9 8 3 6 2 4 5 3 3 3 3 2 5 5 4 2 3 5 10 14 14 10 8 7 7 3 7 9 7
17 18 19 20 20 20 20 19 19 17 15 4 5 2 4 3 3 3 5 6 3 2 2 3 4 3 3 4 4 3 5 5 3 6 5 7 3 4 3 6 8 2 2 4 7 6 5 2 4 2 2 1 2 2 1 1 7 8 6 5 2 5 1 1 3 4 2 0 0 4 5 5 3 2 3 7 10 11 10 11 7 9 7 6 7 5 5
17 18 19 19 19 19 20 19 18 15 13 4 4 3 3 2 3 4 4 3 3 5 2 2 2 4 3 4 3 3 4 2 6 5 3 4 8 7 7 6 5 4 2 1 4 5 5 7 6 3 2 4 4 4 3 1 0 5 7 1 6 5 5 4 3 5 1 2 4 4 7 3 3 6 6 7 4 1 1 2 0 8 9 8 6 8 6
19 18 19 19 19 19 20 19 18 16 9 8 7 4 5 6 5 3 2 4 1 2 2 3 5 2 1 4 6 6 9 8 4 4 2 3 2 3 2 5 6 5 4 2 2 4 8 6 6 2 1 3 3 1 2 1 1 2 3 4 1 6 8 3 3 5 2 3 2 2 3 6 4 3 3 6 6 7 9 7 5 4 6 3 2 1 10
20 19 19 19 19 19 19 18 17 15 10 6 6 4 4 4 4 2 3 3 4 1 2 5 5 6 8 9 8 9 10 10 8 5 10 8 9 7 7 4 1 2 0 2 3 4 4 2 3 1 1 2 3 4 3 5 4 3 2 3 6 8 6 3 0 3 3 3 0 3 5 3 3 4 4 5 4 1 3 2 3 2 1 2 3 9 17
20 19 19 18 18 20 20 19 19 16 12 7 6 6 5 5 3 1 3 3 5 3 6 6 5 9 11 11 10 10 11 11 10 11 11 11 12 9 5 4 4 3 2 4 6 5 3 3 3 3 3 2 2 2 4 3 1 4 3 3 7 5 4 3 2 2 2 1 3 4 1 2 2 3 4 4 3 5 5 3 5 5 5 4 6 9 11
20 20 20 21 21 21 19 18 19 17 13 8 6 6 5 6 4 0 1 2 6 3 3 9 9 6 5 5 7 8 7 8 9 9 9 8 13 14 7 6 7 0 2 2 4 2 1 0 0 2 0 2 2 2 2 3 1 0 1 2 3 9 5 3 3 2 3 1 2 2 2 1 4 4 6 10 7 11 11 6 7 9 8 7 7 11 14
19 19 20 20 20 21 22 21 19 17 15 11 4 4 4 4 3 1 1 1 5 8 4 4 1 5 7 6 4 4 4 5 5 6 10 7 8 8 7 6 4 3 1 3 1 2 1 2 1 5 1 3 3 3 1 3 1 2 2 1 6 2 6 3 5 1 1 2 2 1 2 4 1 6 2 7 3 5 3 1 2 6 8 8 12 17 18
20 20 20 20 20 20 21 20 21 20 16 15 5 4 5 2 1 2 2 2 3 6 2 7 7 6 6 7 6 6 4 2 3 4 4 5 8 8 7 8 5 5 3 2 1 1 1 2 2 2 3 5 0 3 2 2 2 3 4 4 8 4 5 1 3 4 2 2 3 2 4 2 1 2 4 7 3 5 4 2 7 7 13 11 16 18 19
21 20 20 20 19 19 19 19 19 19 19 18 8 4 3 4 3 2 2 2 2 7 8 7 6 6 6 6 4 5 4 4 4 2 2 3 3 3 2 4 5 7 7 4 2 1 1 2 1 1 1 1 4 3 4 1 3 3 3 5 7 4 1 1 2 3 1 3 3 4 3 1 3 3 5 7 5 5 2 4 6 11 15 16 18 19 18
21 20 20 19 19 19 20 19 19 19 19 19 9 7 6 3 4 4 2 2 3 5 4 5 3 3 4 3 4 3 2 4 4 4 3 3 2 2 5 5 5 3 5 3 1 1 1 1 3 2 2 1 2 2 4 5 5 4 5 2 5 2 1 0 4 4 2 4 1 1 2 2 2 4 7 6 7 4 4 6 2 8 18 19 20 22 22
21 20 20 20 20 20 20 20 21 20 19 18 11 7 4 3 4 5 2 3 2 6 6 4 4 10 9 4 7 5 4 3 3 2 2 2 2 3 4 3 2 4 4 2 3 2 3 1 2 0 2 2 1 2 2 4 4 2 5 5 3 1 2 1 2 3 5 2 3 1 1 1 5 2 7 8 7 3 5 2 1 7 13 19 21 24 22
21 21 21 21 21 20 20 20 21 21 20 19 12 8 7 4 5 7 5 4 3 7 12 10 6 9 6 6 4 5 4 5 5 3 2 0 1 1 4 3 1 3 2 2 3 1 2 3 2 2 1 1 2 2 1 2 2 4 4 2 4 8 5 4 4 2 2 1 1 2 2 2 8 14 4 3 3 0 3 3 2 8 15 18 18 20 21
21 21 21 21 21 21 20 21 21 21 20 19 13 8 7 2 3 5 7 5 2 7 8 2 4 10 7 9 11 10 9 8 5 4 6 3 1 0 4 2 5 4 5 3 5 3 2 2 3 1 1 2 2 1 2 2 2 2 3 3 2 2 5 2 1 5 3 2 3 3 0 5 5 6 4 6 1 2 1 2 3 9 13 16 15 17 18
22 22 21 21 20 21 21 21 21 21 20 20 17 8 8 2 4 3 5 5 6 7 8 7 5 11 13 13 13 13 14 15 13 5 1 1 1 2 0 1 3 3 2 2 2 1 1 1 2 1 2 2 1 1 1 4 5 2 0 3 5 5 2 2 4 4 2 2 2 1 0 1 1 1 2 3 4 4 2 2 3 11 11 9 12 16 18
23 22 22 22 21 21 22 21 22 21 20 20 14 6 9 8 4 3 4 5 6 8 8 10 9 11 11 13 18 17 16 13 9 8 7 4 2 2 4 1 2 1 1 2 2 2 1 3 1 2 1 2 3 3 1 1 1 2 3 2 2 4 2 3 3 2 2 2 1 2 1 1 1 2 1 4 4 3 3 4 6 6 9 11 12 12 10
24 23 23 23 22 23 23 22 22 21 20 19 14 9 9 8 7 5 3 4 2 8 6 2 3 4 2 7 3 6 7 8 13 14 8 6 3 1 0 5 2 2 2 2 2 1 2 1 0 2 3 3 3 2 5 3 1 3 2 1 0 1 2 1 2 3 4 2 1 2 1 2 1 2 3 1 3 4 3 5 5 7 8 10 10 11 12
24 24 24 23 23 24 24 23 22 21 20 21 17 8 8 7 4 2 2 2 1 1 3 6 5 12 5 3 7 3 7 7 7 9 11 11 11 4 0 1 3 2 2 2 2 2 0 1 2 2 3 1 3 2 3 1 2 3 2 1 1 3 2 3 1 5 2 1 1 2 2 3 3 1 1 1 0 0 1 1 4 6 7 9 11 13 13
25 25 24 24 23 24 24 23 23 22 22 23 18 10 8 8 5 4 4 4 2 1 3 4 7 3 1 9 5 4 3 8 9 12 14 16 15 13 4 1 3 2 3 0 1 4 2 1 1 0 2 2 3 1 1 3 4 1 1 3 2 2 2 2 5 3 0 0 1 1 2 3 2 1 2 1 1 2 4 7 9 11 13 12 12 13 13
25 25 25 25 24 24 25 24 24 23 23 22 13 10 9 9 6 6 4 3 2 1 2 4 6 9 6 10 6 5 2 6 8 9 10 12 13 10 8 6 5 5 5 3 1 2 1 1 1 2 1 1 0 2 1 3 2 3 3 2 1 3 2 3 3 2 0 1 4 7 3 2 4 4 3 3 3 4 7 7 10 12 14 14 14 12 12
25 25 26 25 25 25 25 26 25 25 23 22 13 9 9 6 3 4 6 6 1 1 3 5 6 11 13 7 3 3 6 4 7 8 8 10 11 8 8 7 3 3 3 2 2 0 0 1 1 0 0 1 1 2 1 1 2 4 4 2 3 2 2 4 0 0 0 1 2 4 3 3 2 4 4 3 5 7 11 11 12 13 14 16 17 14 12
25 26 26 26 26 26 25 26 25 23 23 19 10 9 2 1 2 3 4 4 2 2 5 8 7 5 3 7 9 4 2 1 5 5 6 6 8 8 10 8 7 5 3 2 2 1 1 1 0 1 1 1 1 2 2 1 2 2 1 4 4 2 3 3 3 1 1 1 4 2 1 1 4 3 4 4 3 7 9 8 10 12 14 15 15 15 15
25 26 27 28 27 26 25 25 24 22 20 10 7 2 1 1 1 2 4 4 4 2 2 5 4 2 4 4 6 4 1 3 3 2 4 5 3 4 5 6 5 3 2 2 1 2 1 0 0 1 2 2 1 2 2 1 2 2 1 4 4 4 3 3 1 3 1 2 2 1 4 6 5 5 5 4 3 5 8 9 11 12 12 14 15 14 14
26 27 27 27 28 26 24 24 23 21 15 6 3 1 2 1 2 1 3 3 3 1 0 1 5 5 6 2 2 6 9 6 1 3 4 4 4 3 2 2 2 3 3 1 2 0 1 1 0 2 2 4 1 1 3 3 2 1 4 5 4 4 2 2 2 3 7 7 7 7 7 6 6 7 6 5 6 6 8 8 8 10 12 13 14 14 13
26 28 28 28 27 26 25 23 22 17 7 4 4 2 1 1 2 2 3 2 3 2 1 4 3 2 3 7 4 2 4 2 1 2 2 1 2 2 4 2 4 2 2 3 2 1 0 0 0 2 2 3 3 4 3 2 2 1 5 5 4 2 2 4 6 6 7 9 10 10 6 4 1 1 4 5 6 7 10 11 10 11 11 11 12 13 13
27 28 29 28 28 27 25 22 19 12 8 9 13 17 18 18 16 12 3 3 1 1 1 0 1 2 3 4 7 4 2 2 4 5 2 2 3 2 1 2 0 3 2 3 2 1 1 0 0 1 3 1 2 3 4 3 2 2 4 2 3 4 5 5 6 4 1 3 3 0 4 6 3 3 7 7 8 9 11 12 12 11 12 13 13 12 12
28 28 29 28 28 26 24 22 18 10 4 2 2 2 2 3 2 4 6 3 0 1 1 1 2 2 4 5 2 1 4 3 2 3 2 3 1 1 1 2 2 2 5 3 0 0 0 0 2 1 2 2 2 1 3 2 2 1 2 4 4 5 5 6 5 4 4 4 0 2 7 7 7 7 8 8 8 7 9 11 12 14 14 14 13 12 13
28 28 29 29 27 25 21 12 0 2 2 2 2 2 1 9 11 9 9 6 3 0 0 0 0 2 3 3 2 3 2 2 3 3 1 3 3 3 2 2 2 3 1 2 2 1 1 2 2 1 2 2 1 4 1 3 2 3 5 6 3 4 7 5 5 4 5 4 7 9 9 10 11 9 9 9 9 9 11 11 12 14 13 11 11 12 13
30 30 29 28 27 14 2 2 2 2 1 1 1 5 14 13 5 3 9 1 2 1 1 1 1 1 0 2 3 2 4 1 0 1 1 2 2 3 2 2 2 1 2 2 1 2 1 3 1 1 1 1 1 1 1 4 6 6 5 6 3 1 1 4 7 7 7 8 9 9 9 8 10 10 9 9 9 9 10 11 10 11 12 11 12 11 11
29 30 29 21 6 3 1 1 1 2 2 4 10 15 14 1 5 6 2 2 1 1 1 0 2 2 3 2 1 3 4 4 4 2 4 3 1 2 3 2 2 1 0 2 2 2 2 2 1 2 3 2 1 1 1 3 5 7 7 4 2 3 6 7 8 11 11 9 9 8 7 9 9 8 9 8 8 8 10 10 10 13 14 13 13 11 12
28 25 7 3 1 0 1 1 1 4 12 12 7 2 1 1 0 1 1 1 2 0 0 0 2 1 0 1 3 3 2 1 0 1 0 0 0 1 0 2 1 1 2 1 1 0 1 4 4 2 1 1 2 3 2 3 3 1 3 4 4 5 6 8 10 10 11 9 8 8 8 8 8 7 9 9 8 8 8 9 8 9 11 12 12 12 12
17 6 3 3 1 0 0 1 5 15 10 3 1 1 1 0 0 0 0 0 0 0 0 1 2 0 1 2 5 2 3 2 2 2 2 2 0 1 1 2 1 1 1 1 1 2 1 1 2 1 1 1 1 2 1 2 1 2 3 3 5 7 7 7 4 6 7 5 10 11 11 11 11 8 7 9 7 7 8 9 9 9 9 12 12 11 12
8 8 5 4 1 2 5 5 12 9 2 0 0 0 1 0 0 1 0 0 0 0 0 1 2 2 4 3 3 4 0 3 3 3 1 0 1 1 1 0 0 1 1 1 2 4 1 1 1 0 1 2 2 2 2 3 4 4 3 4 5 6 5 3 1 2 2 4 7 5 4 8 11 10 9 9 9 9 9 9 9 8 10 12 13 13 13
7 6 4 1 5 5 7 11 8 1 0 1 0 1 1 0 0 0 0 0 0 0 1 2 2 2 0 1 2 2 2 3 2 1 1 1 0 1 1 1 0 0 0 1 1 1 2 2 2 0 1 1 4 5 4 3 3 3 3 5 5 6 6 3 2 3 7 9 7 6 7 8 10 11 9 10 9 9 9 10 10 9 11 12 13 12 10
8 8 8 9 10 11 8 3 1 0 0 0 1 1 0 1 0 0 0 1 1 1 1 0 2 3 4 1 3 2 2 1 1 0 0 0 1 0 1 1 1 1 1 0 1 1 1 1 2 2 1 2 2 2 5 5 3 5 5 6 6 6 6 4 4 4 5 9 7 7 7 9 9 9 9 8 9 9 9 8 9 9 9 8 9 8 9
14 10 4 3 3 1 1 1 1 1 1 0 1 1 1 1 1 0 0 1 1 0 2 1 3 4 3 0 3 4 2 1 1 1 1 1 1 1 2 1 1 1 0 1 0 1 1 0 1 2 0 3 3 4 4 5 5 4 4 4 4 3 4 5 5 6 4 6 10 9 7 8 8 8 8 9 9 9 7 8 10 9 8 8 9 9 10
5 2 2 1 1 1 0 0 0 0 1 1 1 1 0 1 0 1 0 0 1 1 1 4 4 4 2 1 1 2 1 1 2 1 2 0 1 1 2 1 1 1 0 0 1 0 1 2 3 1 1 1 2 3 3 4 5 4 4 4 4 5 6 6 7 8 7 5 6 7 7 8 8 7 8 9 10 11 9 8 8 10 10 11 10 9 9
2 2 1 0 0 1 1 1 2 2 2 1 1 1 1 3 1 1 1 0 2 3 2 1 2 1 4 4 0 1 0 1 1 1 1 1 1 1 1 0 0 1 1 1 1 1 0 1 1 1 2 5 5 4 3 4 6 7 6 6 6 6 8 8 7 7 7 7 8 8 8 8 8 7 7 8 8 9 11 11 10 11 10 10 10 9 8
3 1 2 2 1 2 1 1 1 0 0 1 0 2 3 1 2 1 1 1 2 4 5 5 2 1 3 2 0 1 1 0 1 0 0 0 1 0 0 1 0 1 1 1 1 1 1 3 3 2 4 6 6 5 4 3 3 5 8 7 6 6 6 8 8 7 8 7 7 7 8 8 9 8 7 7 7 8 8 9 10 11 11 11 10 10 8
1 0 0 0 0 1 0 0 0 0 1 2 1 1 2 2 2 2 3 1 4 3 5 3 3 2 2 1 1 0 1 1 1 0 0 0 0 0 0 0 1 0 1 1 1 2 2 3 2 2 3 6 6 5 5 5 5 7 6 6 7 7 6 7 8 8 7 8 8 7 7 8 8 8 8 8 7 7 8 8 8 10 11 11 10 9 9
2 1 0 1 1 0 0 0 1 1 0 1 2 1 2 2 1 3 4 2 4 2 4 3 0 1 1 1 0 0 0 0 1 0 0 1 0 1 1 2 1 1 1 0 2 2 3 3 2 0 3 5 7 7 6 6 6 6 7 7 8 8 7 7 7 8 9 9 9 8 8 8 8 8 8 9 8 7 7 7 7 6 7 9 11 10 10
0 1 0 1 0 0 1 1 2 4 3 3 1 1 3 2 2 3 5 3 3 4 2 2 0 0 0 0 1 0 0 1 1 1 1 2 1 0 0 0 1 2 1 4 3 3 2 2 1 2 4 6 5 5 6 6 7 7 7 8 8 8 8 8 8 9 8 8 8 8 7 7 7 7 7 8 8 8 7 8 9 7 8 10 10 10 10
0 2 1 0 1 1 2 1 1 0 2 2 2 2 2 1 4 3 3 6 5 3 1 1 0 0 0 0 0 2 0 0 1 0 1 0 0 1 1 1 2 1 2 0 3 4 2 1 3 5 5 5 6 6 6 5 5 6 6 6 7 7 7 8 8 9 9 8 8 8 9 8 8 8 9 9 7 7 7 7 8 9 9 11 12 11 11
0 1 2 1 1 0 2 1 1 1 2 3 3 2 3 4 2 5 3 4 6 2 3 2 1 1 1 2 2 1 0 0 0 1 0 0 1 1 0 1 2 3 5 4 3 3 1 2 4 5 6 5 5 5 5 6 6 6 6 6 6 6 7 8 9 8 7 7 7 9 9 8 7 7 6 8 9 8 7 5 5 7 9 8 9 11 11
1 0 1 0 1 1 1 1 1 2 2 2 2 1 0 2 2 4 3 4 2 3 2 1 0 1 1 1 0 1 1 1 1 0 0 1 2 1 2 3 2 2 3 3 1 1 0 2 3 4 6 7 6 5 5 5 6 5 6 6 6 7 7 7 8 8 8 7 7 6 5 6 7 7 7 8 8 8 8 6 4 5 6 6 5 6 8
Wind_Direction
350 351 352 354 356 356 355 358 358 356 354 349 358 312 334 32 345 352 339 174 277 319 67 67 199 266 293 327 278 248 277 277 326 321 343 355 309 298 238 287 324 133 290 19 345 312 112 197 169 173 188 208 179 152 172 159 165 163 150 152 185 159 147 167 113 73 257 295 302 274 186 170 167 210 170 166 196 196 209 223 92 171 89 227 173 232 30
351 353 353 354 356 355 358 360 359 354 1 355 329 8 354 335 337 351 41 94 323 333 48 348 307 281 280 258 273 244 261 293 299 272 346 301 1 358 346 305 324 349 336 334 7 351 146 280 331 196 228 74 120 143 164 162 169 178 174 182 154 173 235 186 157 144 177 190 135 176 202 192 203 197 175 198 157 83 74 96 175 200 205 206 197 230 158
353 352 352 354 355 357 360 0 358 354 351 6 358 10 323 296 221 173 95 95 295 311 341 338 311 313 297 307 292 298 236 223 250 265 250 209 205 293 246 249 337 319 327 333 267 282 293 73 336 310 4 125 85 144 155 179 166 189 162 185 144 214 137 179 186 168 172 182 187 187 183 193 172 181 174 192 178 152 154 179 174 218 152 185 208 200 73
352 351 353 355 355 355 358 2 358 354 354 1 195 354 300 359 90 91 112 224 236 268 288 283 304 295 294 291 273 246 270 234 262 235 256 223 228 237 271 286 270 268 321 336 356 24 145 228 7 318 135 189 111 164 158 175 177 179 173 157 152 146 134 203 171 201 195 188 50 17 75 96 191 186 191 185 186 170 167 107 179 214 138 199 207 152 141
351 350 353 352 355 356 356 360 359 356 353 358 358 58 77 259 27 358 142 197 239 256 265 285 286 289 347 298 359 324 340 302 301 151 277 157 208 265 234 254 322 333 177 283 303 261 307 208 255 264 307 5 41 47 173 180 184 173 168 151 111 117 190 208 187 185 148 99 116 140 179 187 192 164 190 178 170 174 171 191 209 109 125 221 124 154 142
350 350 352 353 355 355 355 360 360 354 350 352 303 37 328 15 40 11 25 311 297 236 273 231 249 261 300 291 318 286 306 314 308 284 165 329 249 265 168 212 229 266 324 122 153 25 318 157 225 296 80 267 73 96 113 185 208 179 162 165 161 152 198 211 163 207 102 61 95 147 122 190 177 186 175 183 178 178 199 212 145 157 204 224 136 179 185
348 352 352 352 356 355 355 359 359 357 348 347 268 30 15 95 285 268 327 300 283 279 295 223 236 262 237 278 269 287 285 291 262 269 338 246 254 199 275 344 191 227 233 291 314 283 211 98 12 31 13 36 354 118 101 65 317 174 144 176 94 156 205 170 204 144 114 49 25 156 178 128 130 186 198 189 179 196 205 206 155 191 203 130 164 178 199
349 352 353 352 354 355 357 359 1 357 350 341 37 60 5 12 335 325 285 231 267 275 255 241 242 265 237 250 247 264 271 284 304 213 195 281 280 184 236 276 12 346 202 191 228 229 303 12 56 80 353 61 10 69 350 120 105 172 163 173 250 202 187 167 174 168 86 29 10 81 163 159 167 221 253 239 202 198 205 206 184 199 226 117 160 175 218
349 352 355 354 355 353 356 359 2 359 353 13 18 41 48 316 235 254 301 309 271 228 234 228 236 264 224 234 269 248 261 278 325 308 215 229 251 183 259 9 341 47 136 184 250 263 267 238 266 306 336 345 13 356 102 272 142 158 157 185 160 205 178 60 142 168 128 55 159 178 145 138 139 171 218 198 188 207 204 205 175 184 188 139 144 187 226
347 352 356 354 353 354 356 0 1 2 356 360 335 352 358 310 248 276 287 275 297 314 221 233 238 241 236 227 240 243 304 282 335 325 293 264 247 251 278 314 309 335 26 189 231 283 253 256 273 304 272 270 275 242 273 270 100 158 165 36 164 160 133 161 177 180 157 161 238 199 134 117 240 216 207 198 247 350 34 329 277 219 158 153 188 220 198
352 352 355 355 353 354 355 359 1 5 8 5 348 339 355 358 333 319 291 280 258 229 302 250 210 267 288 218 283 267 278 296 310 276 286 337 81 118 96 17 357 322 274 18 338 276 266 269 289 318 273 213 216 209 266 231 79 345 148 136 83 149 155 169 181 194 148 213 208 257 187 224 220 65 139 195 206 192 188 203 202 215 193 215 199 211 118
357 360 356 356 354 353 356 358 359 0 4 350 329 328 348 317 299 286 305 291 293 289 263 268 267 289 294 292 285 279 279 279 280 265 262 266 276 297 307 312 221 308 21 290 289 277 242 227 247 203 166 121 155 121 112 101 4 308 255 171 149 161 145 130 23 147 166 171 236 196 213 218 91 192 194 207 211 161 252 340 272 255 299 282 161 142 156
354 2 358 356 356 358 357 354 353 356 354 340 331 335 335 303 285 262 279 279 276 290 303 285 269 280 283 282 272 268 264 266 263 260 258 265 279 274 238 228 212 237 30 9 1 5 16 351 347 343 311 0 71 67 113 108 151 324 325 220 154 158 134 143 84 48 75 176 179 214 161 113 169 162 152 147 160 211 141 269 229 229 221 226 207 177 164
353 354 358 357 356 355 353 350 351 350 344 342 335 337 320 319 343 291 266 294 284 261 264 290 282 278 300 284 263 260 266 258 252 246 252 240 248 259 246 222 230 111 120 16 35 6 109 27 156 153 235 13 28 113 81 99 90 337 189 178 173 158 113 155 116 295 185 157 182 231 341 226 125 161 185 169 174 177 181 203 212 190 206 210 177 157 157
345 350 354 352 351 348 350 349 350 351 345 343 313 306 308 316 3 312 255 241 280 294 261 260 6 314 310 295 279 279 266 270 266 252 239 242 252 247 244 242 205 216 178 269 304 32 109 99 192 162 139 174 165 171 21 148 260 0 318 208 119 59 181 144 158 199 223 163 159 208 220 250 199 212 79 164 83 160 337 348 234 175 191 200 172 158 153
340 343 346 348 343 342 344 344 344 344 341 338 305 287 280 265 184 244 257 249 298 304 226 222 274 297 302 299 297 284 276 281 239 271 280 248 251 271 255 233 200 157 170 161 90 133 155 169 199 180 168 174 164 119 180 132 109 38 17 150 113 63 68 39 212 145 158 172 193 191 207 224 36 31 146 152 93 129 238 176 240 168 172 189 174 161 154
335 337 340 337 338 337 338 340 341 340 336 338 329 302 271 184 160 172 232 256 209 251 284 283 287 276 283 288 262 242 242 245 245 269 288 269 271 240 50 76 123 170 184 163 155 161 148 84 60 281 336 232 151 163 81 156 132 114 73 90 96 105 12 134 116 140 182 151 177 208 187 189 140 183 156 167 132 115 211 196 225 152 166 171 174 163 157
334 336 335 334 333 333 333 335 337 337 335 333 327 323 298 206 199 142 201 230 276 275 252 245 198 269 251 254 264 269 222 245 243 252 252 288 310 236 128 132 124 191 203 165 136 146 83 146 187 193 163 148 331 131 181 157 164 172 159 140 140 157 141 258 178 156 158 192 77 344 255 262 105 146 138 166 167 185 189 201 26 162 164 169 174 174 169
333 333 332 331 330 330 331 331 334 334 334 331 325 294 248 234 200 194 204 233 225 277 242 242 296 263 260 275 259 263 273 296 314 315 273 258 220 136 134 100 84 147 182 162 126 182 188 219 332 267 174 160 210 194 102 165 164 63 127 107 79 67 95 49 89 155 158 184 200 216 302 129 124 91 152 177 154 160 206 68 9 192 180 171 169 171 173
333 333 332 331 329 328 329 330 330 331 332 331 329 318 300 256 198 200 220 256 229 249 282 271 199 225 204 210 221 219 232 238 226 234 238 229 5 183 99 157 71 89 99 107 178 172 206 203 184 151 214 154 209 109 109 0 344 154 190 182 158 167 166 180 161 111 45 62 132 70 226 128 148 128 97 291 218 126 353 312 245 198 181 175 175 170 173
333 332 331 331 328 328 329 329 329 329 330 330 332 318 316 209 201 211 211 218 262 298 298 207 204 226 230 239 236 244 247 240 193 209 227 244 311 316 171 201 170 163 171 177 185 179 207 196 177 208 39 156 119 210 194 130 166 279 228 216 137 170 176 161 207 216 145 150 161 193 342 113 188 180 181 186 206 24 273 173 138 175 176 176 173 176 170
331 330 331 330 328 327 327 327 327 328 328 329 330 318 305 274 200 223 222 197 236 226 249 267 282 278 253 243 244 240 239 242 237 247 314 276 229 214 17 246 200 175 168 157 88 46 245 177 68 151 184 167 346 219 114 166 180 125 342 217 172 222 170 188 182 184 194 186 188 74 329 235 23 32 345 307 310 322 312 286 187 168 176 169 170 167 169
328 328 329 328 327 326 325 325 326 327 327 329 330 312 309 310 294 221 186 244 245 254 267 276 280 267 260 240 230 227 227 232 244 248 227 220 289 204 208 152 280 228 231 237 237 158 105 156 214 95 22 236 185 135 26 340 125 173 174 335 349 8 62 106 76 163 243 293 278 336 330 304 319 21 332 313 321 325 259 214 179 194 164 165 166 156 132
326 327 327 327 327 325 324 324 326 325 327 327 328 313 313 308 299 304 259 252 286 305 295 223 1 322 303 335 52 169 201 215 219 222 198 181 173 294 217 223 246 202 226 230 233 294 200 205 167 153 215 207 166 192 172 180 199 140 122 159 25 75 105 48 129 101 152 230 104 311 279 333 341 336 356 290 265 270 250 199 182 155 147 155 141 133 128
324 325 325 326 325 324 323 325 326 325 325 325 325 307 288 291 291 246 276 315 320 63 297 309 254 239 265 278 278 182 203 207 185 187 186 198 203 218 342 117 175 265 326 351 184 163 151 177 165 219 206 178 262 181 334 144 166 228 156 126 174 153 189 86 123 160 195 60 40 327 314 295 313 302 321 129 330 225 218 131 104 104 127 132 127 123 132
323 323 324 324 324 323 321 323 324 323 324 324 323 312 309 289 290 229 244 250 247 313 309 313 283 323 269 327 294 233 170 177 182 180 192 199 207 220 233 2 316 46 340 312 267 203 173 104 74 113 156 211 247 246 170 322 89 126 318 111 355 2 260 209 164 152 130 164 209 90 299 294 265 265 214 279 251 134 111 119 121 123 121 124 127 137 141
321 321 321 322 322 321 320 321 322 322 323 323 320 307 293 291 278 231 204 198 255 244 197 258 296 299 333 314 277 302 221 165 171 179 193 209 214 220 236 265 297 324 320 269 225 139 90 110 148 146 211 126 240 67 78 144 113 121 108 48 336 206 153 107 164 117 148 225 175 168 155 192 186 213 194 184 210 158 130 129 134 136 133 136 132 134 140
319 319 320 320 320 319 318 319 320 322 324 324 317 301 289 278 254 223 215 213 254 317 293 284 283 295 301 260 218 291 305 152 160 171 185 203 209 213 226 237 236 283 284 243 217 49 350 140 113 325 122 207 208 93 354 124 154 92 64 68 346 338 126 170 80 68 79 18 136 162 19 33 47 137 146 178 178 158 148 156 152 149 145 142 138 137 136
318 318 318 319 318 318 316 317 318 320 324 327 319 307 274 305 255 211 213 191 239 269 259 265 269 284 352 317 319 351 331 47 143 168 178 189 197 193 209 207 195 167 189 75 85 109 68 72 67 52 54 351 301 141 224 98 53 111 9 334 330 289 300 296 345 9 37 324 153 140 286 281 142 126 129 138 177 168 145 149 153 153 152 147 141 143 143
318 317 317 316 316 315 314 314 315 319 325 329 328 339 359 101 23 195 178 188 189 289 325 349 336 261 322 298 295 288 141 122 65 78 121 124 126 151 176 148 135 179 91 83 101 48 323 123 88 194 38 267 167 109 78 135 104 107 14 335 335 307 258 241 286 296 31 104 104 79 113 93 89 107 99 106 132 154 143 149 151 150 151 150 141 139 139
317 315 315 314 314 312 310 310 312 317 320 318 334 349 29 328 96 26 182 185 205 320 131 191 250 305 316 261 312 308 338 342 132 149 142 133 133 135 149 164 98 140 95 38 38 89 239 9 21 81 157 21 43 85 132 137 108 105 15 351 346 340 21 48 41 91 113 108 102 102 95 96 115 107 91 105 123 133 126 129 131 139 142 143 140 136 135
317 315 314 314 312 309 307 307 308 310 300 258 212 175 146 22 55 101 159 198 169 258 328 318 321 350 325 309 298 287 306 324 329 344 67 107 78 15 51 22 88 4 113 132 172 180 35 308 243 13 24 16 65 95 82 70 104 93 1 359 4 20 63 99 101 101 109 119 119 100 80 97 90 22 146 140 129 134 133 132 133 131 127 127 131 134 132
317 316 314 311 309 308 306 304 302 297 275 261 260 277 284 279 271 263 204 136 226 225 242 341 272 292 294 279 314 309 300 299 19 7 44 10 41 337 96 34 80 96 106 117 25 72 310 249 261 77 44 284 82 101 70 66 57 339 334 349 65 88 89 87 94 83 54 321 317 23 180 174 146 103 113 120 129 133 135 134 133 125 120 120 121 122 122
317 316 313 310 307 307 306 304 302 289 259 249 245 228 259 257 245 219 179 183 225 119 122 69 331 324 273 307 330 42 9 24 326 339 6 27 293 115 335 30 21 80 3 39 220 265 21 9 28 318 243 40 5 97 77 46 337 45 95 103 112 109 103 86 51 32 0 349 5 115 100 105 106 112 111 117 120 124 129 128 132 129 129 129 130 131 128
318 315 311 309 308 306 308 309 210 113 161 231 267 271 303 312 296 259 181 178 176 328 354 171 140 303 329 343 22 292 344 12 350 1 4 337 23 22 334 54 342 55 16 111 74 55 358 29 284 285 37 292 44 60 158 157 158 140 136 130 140 141 129 98 45 42 58 63 85 93 111 124 123 120 123 125 126 131 134 137 139 132 129 126 125 128 131
318 315 311 309 307 309 284 153 91 113 105 346 103 347 319 318 337 169 170 151 340 152 99 294 353 274 163 301 326 289 308 72 51 273 209 287 354 58 56 99 74 80 267 20 38 310 25 343 282 34 312 56 46 198 82 172 161 158 157 150 161 223 64 118 125 99 89 85 89 103 112 116 118 124 127 129 131 136 134 132 133 125 122 125 128 127 126
318 315 313 307 299 145 28 98 356 64 50 287 292 300 297 319 97 95 86 271 234 74 259 192 304 248 195 302 270 272 353 355 335 343 353 20 338 318 5 39 59 308 63 26 27 11 11 336 41 59 11 65 35 332 280 194 177 164 169 164 149 138 119 118 119 111 96 90 95 100 111 115 116 123 126 130 131 131 130 128 134 135 135 134 135 131 135
318 316 326 348 353 6 56 4 62 336 318 305 307 209 182 222 3 13 25 47 283 145 322 167 252 239 157 303 306 322 355 273 126 3 355 211 282 28 351 61 10 313 40 315 350 59 320 40 38 51 72 253 291 282 229 185 197 216 161 154 155 144 137 136 132 113 106 109 114 122 119 125 128 137 133 132 133 133 126 122 121 125 127 133 134 132 130
318 306 4 13 41 240 167 81 338 328 317 265 225 205 247 29 80 336 67 285 4 193 164 205 266 59 207 252 270 295 72 330 327 3 57 6 351 9 12 47 0 63 47 33 110 270 318 66 24 356 114 311 95 114 125 153 176 177 177 165 158 150 149 154 154 135 154 177 175 166 157 151 146 145 138 131 128 119 127 127 126 134 132 133 134 134 135
357 8 1 337 342 294 306 308 327 325 278 179 316 121 248 341 129 314 132 68 305 278 156 267 210 214 214 279 316 309 19 349 345 355 28 285 66 359 298 131 291 80 25 2 350 352 359 351 328 307 119 201 171 152 149 164 155 154 165 151 156 145 150 134 88 346 27 84 120 127 126 136 135 137 141 134 134 133 133 130 131 132 136 137 137 138 145
0 341 332 305 300 319 309 317 318 243 39 125 323 358 60 280 317 204 87 100 89 248 197 286 329 303 195 70 160 268 319 100 118 106 111 28 200 151 45 47 297 60 23 352 21 53 82 103 8 353 14 171 157 147 144 153 146 139 150 147 156 157 152 116 72 112 122 117 118 121 132 139 135 133 137 136 133 133 136 139 141 140 138 137 144 144 135
309 292 280 286 286 288 300 283 217 323 7 71 137 261 247 254 316 340 71 105 7 290 4 239 321 335 291 211 274 264 293 58 126 102 111 5 343 40 148 330 349 77 23 34 68 71 48 11 331 319 263 215 220 121 149 140 144 147 158 161 165 161 147 136 125 120 131 124 118 121 130 141 135 127 129 128 128 127 127 124 121 129 130 122 118 119 132
301 293 273 271 308 272 260 317 298 115 174 283 49 296 349 50 12 105 316 274 273 241 301 171 245 265 248 75 260 196 232 0 306 331 56 6 323 52 63 28 30 44 40 0 1 30 27 21 260 261 139 152 172 172 174 152 157 162 147 149 144 141 132 125 124 117 96 119 132 132 131 131 127 124 120 114 110 106 109 118 129 124 123 123 128 130 136
304 248 234 225 299 264 197 169 87 51 332 61 118 203 278 84 102 26 56 302 355 289 33 344 337 9 312 20 337 338 344 214 75 90 80 256 61 350 44 34 6 351 303 32 25 340 355 252 241 348 44 126 165 191 153 141 143 137 116 106 122 135 127 122 123 122 113 98 104 115 117 116 113 117 125 127 130 127 123 118 125 124 120 122 127 132 136
345 346 352 308 304 268 104 248 326 117 220 268 152 169 140 140 194 209 49 297 181 307 342 251 275 262 268 290 256 188 34 284 314 84 297 349 56 43 80 7 293 32 44 300 327 280 249 4 27 220 204 178 182 173 166 152 157 157 141 129 137 145 144 139 139 131 131 138 138 133 127 125 125 127 131 131 128 132 134 134 135 131 132 124 124 123 131
23 355 344 66 339 311 104 190 6 37 311 177 277 194 164 248 139 133 233 122 284 296 315 311 306 216 266 268 2 358 358 24 350 45 122 80 88 1 21 193 100 47 31 52 43 322 322 326 309 251 191 174 159 160 154 145 131 127 139 146 152 152 149 142 142 140 141 140 140 136 133 135 132 131 128 127 126 126 126 131 138 135 132 129 134 135 139
256 171 247 293 119 270 60 126 195 105 336 291 297 181 346 351 258 290 284 171 260 271 284 265 253 233 295 339 317 105 51 35 76 346 238 345 78 256 25 57 331 15 82 329 289 271 293 308 270 264 159 156 146 144 143 148 158 164 156 136 141 146 145 141 141 141 141 141 138 134 133 134 130 126 126 129 128 127 130 131 135 139 142 140 138 133 139
325 276 316 123 239 225 131 179 293 261 78 306 345 329 287 271 304 355 324 238 267 296 296 311 243 152 196 206 270 90 334 322 113 16 34 137 179 34 10 32 357 261 201 264 284 230 280 296 335 204 166 154 147 142 146 150 161 158 149 144 144 143 147 142 142 144 148 147 146 142 137 135 134 137 140 135 130 133 135 127 127 124 120 126 136 141 144
141 81 356 206 204 147 246 335 324 96 10 345 351 8 346 6 25 320 319 298 288 303 300 229 179 192 210 72 63 27 27 4 60 289 7 32 62 261 64 285 347 16 254 201 272 283 303 344 3 138 146 149 151 144 148 155 154 155 155 153 157 158 155 156 154 151 150 148 148 146 143 136 132 128 124 128 135 142 139 134 137 138 139 140 142 145 144
103 328 36 209 284 249 261 218 284 80 0 359 23 27 338 328 348 338 331 325 330 324 215 174 1 306 320 2 29 16 8 321 118 176 64 42 160 177 75 4 225 206 324 199 234 259 274 291 139 144 150 149 152 148 143 151 154 157 157 153 149 152 156 152 149 153 155 154 153 149 144 142 144 145 151 153 140 134 135 141 142 146 152 152 150 152 152
261 284 256 270 245 144 27 349 47 8 352 19 0 3 18 352 355 325 8 327 314 339 46 34 333 353 327 27 46 39 34 185 40 43 179 201 144 113 151 195 243 212 249 268 286 310 289 181 167 149 149 156 156 159 148 149 155 153 154 156 158 150 150 155 152 151 150 148 143 143 156 163 156 139 118 114 125 130 126 123 138 151 155 159 157 154 155
65 47 273 308 233 255 244 308 228 247 283 319 299 262 163 321 317 298 327 309 314 33 11 302 6 353 57 82 145 267 296 45 45 57 16 232 177 156 202 212 258 237 245 287 305 102 162 181 186 167 159 158 162 154 146 132 135 142 151 151 151 150 150 152 151 150 148 151 158 149 120 110 112 110 118 123 125 133 144 154 156 157 156 158 162 158 154